Weather History for Ord, NE

Change the Weather History Date:

Tuesday, September 3, 2013

  Actual Average Record
Temperature  
Mean Temperature 73 °F 69 °F  
Max Temperature 89 °F 83 °F 96 °F (1998)
Min Temperature 56 °F 55 °F 42 °F (2008)
Degree Days  
Heating Degree Days 0    
Month to date heating degree days 0  
Since 1 July heating degree days 7  
Cooling Degree Days 8    
Month to date cooling degree days 15  
Year to date cooling degree days 775  
Growing Degree Days 22 (Base 50)    
Moisture  
Dew Point 58 °F    
Average Humidity 66    
Maximum Humidity 100    
Minimum Humidity 32    
Precipitation  
Precipitation 0.00 in 0.09 in 1.03 in (1941)
Month to date precipitation 0.00 0.29  
Year to date precipitation 19.43 19.20  
Sea Level Pressure  
Sea Level Pressure 30.01 in    
Wind  
Wind Speed 9 mph (SSE)    
Max Wind Speed 21 mph    
Max Gust Speed 26 mph    
Visibility 10 miles    
Events      
T = Trace of Precipitation, MM = Missing Value Source: NWS Daily Summary

Daily Weather History Graph

Daily Weather History Graph

Search for Another Location

Airport:

Trip Planner

Search our weather history database for the weather conditions in past years. The results will help you decide how hot, cold, wet, or windy it might be!

Date:

Astronomy

Sep. 03, 2013 Rise Set
Actual Time 7:04 AM CDT 8:05 PM CDT
Civil Twilight 6:35 AM CDT 8:33 PM CDT
Nautical Twilight 6:01 AM CDT 9:07 PM CDT
Astronomical Twilight 5:26 AM CDT 9:42 PM CDT
Moon 5:18 AM CDT (9/3) 6:53 PM CDT (9/3)
Length of Visible Light 13h 57m
Length of Day
13h 01m
Waning Crescent, 3% of the Moon is Illuminated
Sep 3
Waning Crescent
Sep 5
New
Sep 12
First Quarter
Sep 19
Full
Sep 26
Last Quarter

Hourly Weather History & Observations

Time (CDT) Temp. Heat Index Dew Point Humidity Pressure Visibility Wind Dir Wind Speed Gust Speed Precip Events Conditions
12:53 AM 64.0 °F - 59.0 °F 84% 30.02 in 10.0 mi ESE 3.5 mph - N/A   Clear
1:53 AM 63.0 °F - 59.0 °F 87% 30.03 in 10.0 mi SSE 3.5 mph - N/A   Clear
2:53 AM 61.0 °F - 57.9 °F 90% 30.03 in 10.0 mi Calm Calm - N/A   Clear
3:53 AM 59.0 °F - 57.0 °F 93% 30.04 in 10.0 mi Calm Calm - N/A   Clear
4:53 AM 60.1 °F - 57.9 °F 93% 30.03 in 10.0 mi Calm Calm - N/A   Clear
5:53 AM 57.9 °F - 57.0 °F 97% 30.04 in 7.0 mi Calm Calm - N/A   Clear
6:53 AM 57.0 °F - 55.9 °F 96% 30.04 in 7.0 mi ESE 3.5 mph - N/A   Clear
7:53 AM 60.1 °F - 57.9 °F 93% 30.05 in 9.0 mi ESE 3.5 mph - N/A   Clear
8:53 AM 69.1 °F - 59.0 °F 70% 30.04 in 10.0 mi SSE 5.8 mph - N/A   Clear
9:53 AM 75.0 °F - 59.0 °F 57% 30.03 in 10.0 mi South 10.4 mph - N/A   Clear
10:53 AM 80.1 °F 80.7 °F 59.0 °F 48% 30.04 in 10.0 mi South 12.7 mph - N/A   Clear
11:53 AM 84.0 °F 82.9 °F 55.0 °F 37% 30.02 in 10.0 mi South 18.4 mph 23.0 mph N/A   Clear
12:53 PM 86.0 °F 84.2 °F 54.0 °F 33% 30.01 in 10.0 mi SSW 15.0 mph 24.2 mph N/A   Clear
1:53 PM 88.0 °F 86.5 °F 55.9 °F 34% 29.99 in 10.0 mi SSW 16.1 mph - N/A   Clear
2:53 PM 87.1 °F 85.7 °F 55.9 °F 35% 29.99 in 10.0 mi South 15.0 mph 21.9 mph N/A   Clear
3:53 PM 88.0 °F 86.9 °F 57.9 °F 36% 29.96 in 10.0 mi SSE 17.3 mph 23.0 mph N/A   Clear
4:53 PM 87.1 °F 86.1 °F 57.9 °F 37% 29.96 in 10.0 mi South 17.3 mph 21.9 mph N/A   Clear
5:53 PM 87.1 °F 86.5 °F 59.0 °F 39% 29.96 in 10.0 mi South 13.8 mph - N/A   Clear
6:53 PM 84.0 °F 84.4 °F 61.0 °F 46% 29.97 in 10.0 mi SSE 13.8 mph - N/A   Clear
7:53 PM 81.0 °F 81.7 °F 61.0 °F 50% 29.97 in 10.0 mi SE 9.2 mph - N/A   Clear
8:53 PM 77.0 °F - 62.1 °F 60% 29.98 in 10.0 mi SE 9.2 mph - N/A   Clear
9:53 PM 75.0 °F - 61.0 °F 62% 29.99 in 10.0 mi SE 9.2 mph - N/A   Clear
10:53 PM 73.0 °F - 61.0 °F 66% 29.99 in 10.0 mi South 6.9 mph - N/A   Clear
11:53 PM 72.0 °F - 59.0 °F 64% 29.99 in 10.0 mi SSE 8.1 mph - N/A   Partly Cloudy